CW9336 Weather Reports


time (UTC)temp
F
wind
direction
speed
knots
gust
knots
rain 1hr
in
rain 24hr
in
rain mn
in
humidity
%
barometer
mb
20260903043016 81 248 0.0 1.7 0.00 0.01 0.00 81 1013.9
20260903041519 81 239 0.0 1.7 0.00 0.01 0.00 80 1013.9
20260903040018 82 219 0.0 3.5 0.00 0.01 0.00 79 1013.7
20260903034521 82 252 0.9 7.0 0.00 0.01 0.01 78 1013.5
20260903033023 83 352 0.9 4.3 0.00 0.01 0.01 77 1013.3
20260903031526 83 261 0.0 2.6 0.00 0.01 0.01 77 1013.2
20260903030003 83 204 0.9 3.5 0.00 0.01 0.01 77 1013.1
20260903024503 83 240 0.0 1.7 0.00 0.01 0.01 76 1013.4
20260903023006 84 228 0.0 0.0 0.00 0.01 0.01 75 1013.6
20260903021505 84 247 0.0 0.9 0.00 0.01 0.01 74 1013.9
20260903020002 84 217 0.0 0.0 0.00 0.01 0.01 74 1013.9
20260903014504 84 228 0.0 1.7 0.00 0.01 0.01 74 1013.7
20260903013004 85 273 0.0 1.7 0.00 0.01 0.01 73 1013.6
20260903011508 85 229 0.0 0.0 0.00 0.01 0.01 73 1013.5
20260903010007 85 259 0.0 1.7 0.00 0.01 0.01 72 1013.3
20260903004510 86 254 0.9 1.7 0.00 0.01 0.01 71 1013.3
20260903003013 87 231 0.0 1.7 0.00 0.01 0.01 69 1013.3
20260903001513 87 257 0.0 0.0 0.00 0.01 0.01 68 1013.4
20260903000021 88 265 0.9 1.7 0.00 0.01 0.01 67 1013.4
20260902234516 88 267 0.0 2.6 0.00 0.01 0.01 66 1013.5
20260902233018 89 252 0.9 1.7 0.00 0.01 0.01 65 1013.5
20260902231524 89 258 0.0 1.7 0.00 0.01 0.01 64 1013.4
20260902230022 90 248 0.9 3.5 0.00 0.01 0.01 61 1013.3
20260902224521 90 269 0.9 2.6 0.00 0.01 0.01 61 1013.3
20260902223028 91 219 1.7 3.5 0.00 0.01 0.01 59 1013.4
20260902221524 91 217 0.9 2.6 0.00 0.01 0.01 57 1013.4
20260902220028 91 269 0.9 3.5 0.00 0.01 0.01 57 1013.4
20260902214530 92 265 1.7 2.6 0.00 0.01 0.01 56 1013.5
20260902213030 92 264 0.9 7.0 0.00 0.01 0.01 54 1013.5
20260902211528 93 360 2.6 8.7 0.00 0.02 0.01 50 1013.7
20260902210032 94 352 1.7 5.2 0.00 0.02 0.01 53 1013.7
20260902204530 94 346 1.7 7.0 0.00 0.02 0.01 53 1013.8
20260902203029 94 319 0.9 7.0 0.00 0.02 0.01 53 1014.0
20260902201533 94 320 3.5 10.4 0.00 0.02 0.01 54 1014.0
20260902200031 93 195 2.6 6.1 0.00 0.02 0.01 56 1014.1
20260902194541 93 277 1.7 4.3 0.00 0.02 0.01 56 1014.4
20260902193035 92 279 1.7 7.8 0.00 0.02 0.01 57 1014.6
20260902191514 92 273 0.9 7.0 0.00 0.02 0.01 58 1014.8
20260902190021 92 261 1.7 7.0 0.00 0.02 0.01 61 1015.0
20260902184516 91 254 1.7 9.6 0.00 0.02 0.01 59 1015.1
20260902183017 92 263 0.9 9.6 0.00 0.02 0.01 59 1015.3
20260902181518 91 325 1.7 8.7 0.00 0.02 0.01 61 1015.3
20260902180032 91 267 1.7 5.2 0.00 0.02 0.01 64 1015.4
20260902174525 91 234 0.0 9.6 0.00 0.02 0.01 63 1015.6
20260902173033 91 15 4.3 9.6 0.00 0.02 0.01 63 1015.7
20260902171528 89 254 0.9 4.3 0.00 0.02 0.01 66 1015.8
20260902170034 89 339 1.7 7.8 0.00 0.02 0.01 67 1016.0
20260902164503 89 265 1.7 2.6 0.00 0.02 0.01 65 1016.2
20260902163003 89 352 0.9 5.2 0.00 0.02 0.01 66 1016.1
20260902161507 88 259 0.9 2.6 0.00 0.02 0.01 67 1016.1
20260902160009 87 292 1.7 5.2 0.00 0.02 0.01 71 1016.3
20260902154510 86 232 0.9 1.7 0.00 0.02 0.01 72 1016.3
20260902153008 86 293 1.7 3.5 0.00 0.02 0.01 74 1016.3
20260902151509 85 360 0.0 1.7 0.00 0.02 0.01 75 1016.3
20260902150010 85 311 0.9 6.1 0.00 0.02 0.01 74 1016.1
20260902144510 85 351 0.9 5.2 0.00 0.02 0.01 74 1016.1
20260902143012 85 9 0.9 3.5 0.00 0.02 0.01 74 1015.9
20260902141513 84 11 0.9 7.0 0.00 0.02 0.01 77 1015.9
20260902140015 83 323 1.7 4.3 0.00 0.02 0.01 78 1015.9
20260902134522 82 270 1.7 5.2 0.00 0.02 0.01 80 1015.8
20260902133027 80 360 0.9 5.2 0.00 0.02 0.01 84 1015.8
20260902131519 78 272 0.0 1.7 0.00 0.02 0.01 88 1015.8
20260902130024 77 352 0.0 2.6 0.00 0.02 0.01 90 1015.8
20260902124523 76 255 0.0 1.7 0.01 0.02 0.01 93 1015.9
20260902123025 75 238 0.0 2.6 0.01 0.02 0.01 93 1015.8
20260902121528 74 232 0.0 1.7 0.01 0.02 0.01 94 1015.9
20260902120028 74 259 0.0 0.0 0.01 0.02 0.01 94 1016.0
20260902114530 73 259 0.0 0.0 0.00 0.01 0.00 94 1015.8
20260902113030 73 259 0.0 0.0 0.00 0.01 0.00 94 1015.7
20260902111531 72 259 0.0 0.9 0.00 0.01 0.00 94 1015.7
20260902110030 72 200 0.0 0.0 0.00 0.01 0.00 94 1015.7
20260902104534 72 200 0.0 0.0 0.00 0.01 0.00 94 1015.8
20260902103029 72 200 0.0 0.0 0.00 0.01 0.00 94 1015.8
20260902101530 72 200 0.0 0.0 0.00 0.01 0.00 94 1016.0
20260902100031 72 200 0.0 0.0 0.00 0.01 0.00 94 1015.9
20260902094534 72 200 0.0 0.0 0.00 0.01 0.00 94 1015.8
20260902093013 72 200 0.0 0.0 0.00 0.01 0.00 94 1015.7
20260902091513 72 185 0.0 0.0 0.00 0.01 0.00 94 1015.5
20260902090016 71 185 0.0 0.0 0.00 0.01 0.00 93 1015.5
20260902084518 72 185 0.0 0.0 0.00 0.01 0.00 93 1015.6
20260902083016 72 185 0.0 0.0 0.00 0.01 0.00 93 1015.4
20260902081518 72 185 0.0 0.0 0.00 0.01 0.00 93 1015.3
20260902080014 72 185 0.0 0.0 0.00 0.01 0.00 94 1015.3
20260902074518 71 185 0.0 0.0 0.00 0.01 0.00 93 1015.3
20260902073016 72 185 0.0 0.0 0.00 0.01 0.00 93 1015.3
20260902071519 72 185 0.0 0.0 0.00 0.01 0.00 93 1015.1
20260902070020 72 185 0.0 0.0 0.00 0.01 0.00 93 1015.0
20260902064524 72 185 0.0 0.0 0.00 0.01 0.00 93 1015.1
20260902063024 72 185 0.0 0.0 0.00 0.01 0.00 93 1015.1
20260902061522 72 185 0.0 1.7 0.00 0.01 0.00 93 1015.2
20260902060006 72 80 0.0 0.0 0.00 0.01 0.00 93 1015.3
20260902054515 72 80 0.0 0.0 0.00 0.01 0.00 93 1015.4
20260902053008 72 80 0.0 0.0 0.00 0.01 0.00 93 1015.4
20260902051513 72 80 0.0 1.7 0.00 0.01 0.00 93 1015.5
20260902050012 72 75 0.0 0.0 0.00 0.01 0.00 93 1015.5
20260902044515 72 75 0.0 0.0 0.00 0.01 0.00 92 1015.7